Powrót do katalogu

STARLINK-37046

AktywnyŁącznośćSSO
NORAD 68102·PAYLOAD·🇺🇸 United States

Wystrzelony Mar 8, 2026 z Vandenberg Space Force Base

Loading…

Następne Przeloty (najbliższe 24 godziny)

TLE

ŚwieżeSource: CelesTrak SupGP

Epoka: Sep 14, 2026, 23:23 UTC

1 68102C 26044B   26257.97479167 -.00065200  00000+0 -20243-2 0  2579
2 68102  97.2850 216.9315 0001948  87.9453   5.9423 15.33466424    17

Śledź STARLINK-37046 w czasie rzeczywistym z AllMySat

Download on the App Store